Wetterdaten: Montag, 22.02.2010
Datum Zeit Temp. A. Feuchte A. Luftdruck Regen Wind Richtung Richtung Sonnenschein UV Solar Windben
22.02.2010 00:00 1,1 C 84 % 995,6 hPa 0,0 mm 0,0 km/h (0 Bft) SO 135 0 min 0 UV-I 0 W/m 3,2 km/h (1 Bft)
22.02.2010 00:10 1,1 C 84 % 995,5 hPa 0,0 mm 0,0 km/h (0 Bft) SO 135 0 min 0 UV-I 0 W/m 3,2 km/h (1 Bft)
22.02.2010 00:20 1,0 C 84 % 995,3 hPa 0,0 mm 0,0 km/h (0 Bft) O-SO 112 0 min 0 UV-I 0 W/m 4,8 km/h (1 Bft)
22.02.2010 00:30 0,9 C 84 % 995,3 hPa 0,0 mm 0,0 km/h (0 Bft) O-SO 112 0 min 0 UV-I 0 W/m 4,8 km/h (1 Bft)
22.02.2010 00:40 0,9 C 84 % 995,2 hPa 0,0 mm 0,0 km/h (0 Bft) O-SO 112 0 min 0 UV-I 0 W/m 3,2 km/h (1 Bft)
22.02.2010 00:50 0,8 C 85 % 995,1 hPa 0,0 mm 1,6 km/h (1 Bft) O-SO 112 0 min 0 UV-I 0 W/m 8,0 km/h (2 Bft)
22.02.2010 01:00 0,9 C 85 % 995,0 hPa 0,0 mm 1,6 km/h (1 Bft) S-SO 157 0 min 0 UV-I 0 W/m 9,7 km/h (2 Bft)
22.02.2010 01:10 1,1 C 86 % 994,9 hPa 0,0 mm 1,6 km/h (1 Bft) S 180 0 min 0 UV-I 0 W/m 4,8 km/h (1 Bft)
22.02.2010 01:20 1,3 C 86 % 994,9 hPa 0,0 mm 1,6 km/h (1 Bft) S 180 0 min 0 UV-I 0 W/m 9,7 km/h (2 Bft)
22.02.2010 01:30 1,4 C 86 % 994,9 hPa 0,0 mm 1,6 km/h (1 Bft) S 180 0 min 0 UV-I 0 W/m 6,4 km/h (2 Bft)
22.02.2010 01:40 1,5 C 86 % 994,9 hPa 0,0 mm 0,0 km/h (0 Bft) S 180 0 min 0 UV-I 0 W/m 4,8 km/h (1 Bft)
22.02.2010 01:50 1,6 C 86 % 994,7 hPa 0,0 mm 1,6 km/h (1 Bft) S-SO 157 0 min 0 UV-I 0 W/m 6,4 km/h (2 Bft)
22.02.2010 02:00 1,7 C 86 % 994,6 hPa 0,0 mm 1,6 km/h (1 Bft) SO 135 0 min 0 UV-I 0 W/m 8,0 km/h (2 Bft)
22.02.2010 02:10 1,7 C 86 % 994,5 hPa 0,0 mm 1,6 km/h (1 Bft) S 180 0 min 0 UV-I 0 W/m 8,0 km/h (2 Bft)
22.02.2010 02:20 1,8 C 86 % 994,4 hPa 0,0 mm 1,6 km/h (1 Bft) S-SO 157 0 min 0 UV-I 0 W/m 6,4 km/h (2 Bft)
22.02.2010 02:30 1,9 C 86 % 994,3 hPa 0,0 mm 1,6 km/h (1 Bft) S-SO 157 0 min 0 UV-I 0 W/m 9,7 km/h (2 Bft)
22.02.2010 02:40 1,9 C 86 % 994,1 hPa 0,0 mm 0,0 km/h (0 Bft) S-SO 157 0 min 0 UV-I 0 W/m 4,8 km/h (1 Bft)
22.02.2010 02:50 1,9 C 86 % 994,1 hPa 0,0 mm 0,0 km/h (0 Bft) S-SO 157 0 min 0 UV-I 0 W/m 4,8 km/h (1 Bft)
22.02.2010 03:00 2,0 C 86 % 994,0 hPa 0,0 mm 0,0 km/h (0 Bft) S-SO 157 0 min 0 UV-I 0 W/m 4,8 km/h (1 Bft)
22.02.2010 03:10 2,0 C 86 % 993,8 hPa 0,0 mm 0,0 km/h (0 Bft) SO 135 0 min 0 UV-I 0 W/m 4,8 km/h (1 Bft)
22.02.2010 03:20 2,0 C 86 % 993,8 hPa 0,0 mm 0,0 km/h (0 Bft) SO 135 0 min 0 UV-I 0 W/m 6,4 km/h (2 Bft)
22.02.2010 03:30 2,0 C 86 % 993,7 hPa 0,0 mm 1,6 km/h (1 Bft) SO 135 0 min 0 UV-I 0 W/m 9,7 km/h (2 Bft)
22.02.2010 03:40 2,1 C 86 % 993,6 hPa 0,0 mm 1,6 km/h (1 Bft) SO 135 0 min 0 UV-I 0 W/m 9,7 km/h (2 Bft)
22.02.2010 03:50 2,2 C 85 % 993,5 hPa 0,0 mm 1,6 km/h (1 Bft) SO 135 0 min 0 UV-I 0 W/m 8,0 km/h (2 Bft)
22.02.2010 04:00 2,2 C 85 % 993,4 hPa 0,0 mm 1,6 km/h (1 Bft) S-SO 157 0 min 0 UV-I 0 W/m 9,7 km/h (2 Bft)
22.02.2010 04:10 2,2 C 85 % 993,3 hPa 0,0 mm 1,6 km/h (1 Bft) O-SO 112 0 min 0 UV-I 0 W/m 4,8 km/h (1 Bft)
22.02.2010 04:20 2,1 C 85 % 993,1 hPa 0,0 mm 1,6 km/h (1 Bft) O-SO 112 0 min 0 UV-I 0 W/m 6,4 km/h (2 Bft)
22.02.2010 04:30 2,0 C 85 % 993,1 hPa 0,0 mm 1,6 km/h (1 Bft) O 90 0 min 0 UV-I 0 W/m 6,4 km/h (2 Bft)
22.02.2010 04:40 1,9 C 85 % 993,1 hPa 0,0 mm 1,6 km/h (1 Bft) SO 135 0 min 0 UV-I 0 W/m 6,4 km/h (2 Bft)
22.02.2010 04:50 1,9 C 85 % 993,0 hPa 0,0 mm 1,6 km/h (1 Bft) S-SO 157 0 min 0 UV-I 0 W/m 8,0 km/h (2 Bft)
22.02.2010 05:00 1,8 C 85 % 992,9 hPa 0,0 mm 1,6 km/h (1 Bft) S-SO 157 0 min 0 UV-I 0 W/m 6,4 km/h (2 Bft)
22.02.2010 05:10 1,8 C 85 % 992,9 hPa 0,0 mm 1,6 km/h (1 Bft) SO 135 0 min 0 UV-I 0 W/m 8,0 km/h (2 Bft)
22.02.2010 05:20 1,7 C 85 % 992,8 hPa 0,0 mm 1,6 km/h (1 Bft) O-SO 112 0 min 0 UV-I 0 W/m 9,7 km/h (2 Bft)
22.02.2010 05:30 1,7 C 85 % 992,8 hPa 0,0 mm 1,6 km/h (1 Bft) SO 135 0 min 0 UV-I 0 W/m 8,0 km/h (2 Bft)
22.02.2010 05:40 1,6 C 85 % 992,7 hPa 0,0 mm 1,6 km/h (1 Bft) SO 135 0 min 0 UV-I 0 W/m 6,4 km/h (2 Bft)
22.02.2010 05:50 1,6 C 85 % 992,6 hPa 0,0 mm 1,6 km/h (1 Bft) S-SO 157 0 min 0 UV-I 0 W/m 4,8 km/h (1 Bft)
22.02.2010 06:00 1,6 C 85 % 992,6 hPa 0,0 mm 0,0 km/h (0 Bft) SO 135 0 min 0 UV-I 0 W/m 4,8 km/h (1 Bft)
22.02.2010 06:10 1,6 C 86 % 992,5 hPa 0,0 mm 0,0 km/h (0 Bft) S 180 0 min 0 UV-I 0 W/m 4,8 km/h (1 Bft)
22.02.2010 06:20 1,6 C 86 % 992,5 hPa 0,0 mm 0,0 km/h (0 Bft) S-SW 202 0 min 0 UV-I 0 W/m 4,8 km/h (1 Bft)
22.02.2010 06:30 1,7 C 86 % 992,5 hPa 0,0 mm 0,0 km/h (0 Bft) S-SO 157 0 min 0 UV-I 0 W/m 3,2 km/h (1 Bft)
22.02.2010 06:40 1,7 C 85 % 992,4 hPa 0,0 mm 0,0 km/h (0 Bft) SO 135 0 min 0 UV-I 0 W/m 4,8 km/h (1 Bft)
22.02.2010 06:50 1,7 C 86 % 992,3 hPa 0,0 mm 0,0 km/h (0 Bft) O-SO 112 0 min 0 UV-I 0 W/m 3,2 km/h (1 Bft)
22.02.2010 07:00 1,7 C 85 % 992,2 hPa 0,0 mm 0,0 km/h (0 Bft) O-SO 112 0 min 0 UV-I 0 W/m 3,2 km/h (1 Bft)
22.02.2010 07:10 1,7 C 86 % 992,2 hPa 0,0 mm 0,0 km/h (0 Bft) SO 135 0 min 0 UV-I 0 W/m 4,8 km/h (1 Bft)
22.02.2010 07:20 1,8 C 86 % 992,1 hPa 0,0 mm 0,0 km/h (0 Bft) O-SO 112 0 min 0 UV-I 0 W/m 4,8 km/h (1 Bft)
22.02.2010 07:30 1,8 C 86 % 992,0 hPa 0,0 mm 1,6 km/h (1 Bft) S-SO 157 0 min 0 UV-I 0 W/m 6,4 km/h (2 Bft)
22.02.2010 07:40 1,9 C 86 % 992,0 hPa 0,0 mm 1,6 km/h (1 Bft) S-SO 157 0 min 0 UV-I 0 W/m 6,4 km/h (2 Bft)
22.02.2010 07:50 2,1 C 86 % 991,9 hPa 0,0 mm 1,6 km/h (1 Bft) SO 135 0 min 0 UV-I 5 W/m 9,7 km/h (2 Bft)
22.02.2010 08:00 2,2 C 86 % 991,9 hPa 0,0 mm 0,7 km/h (0 Bft) O-NO 74 0 min 0 UV-I 11 W/m 3,2 km/h (1 Bft)
22.02.2010 08:10 2,3 C 86 % 991,9 hPa 0,0 mm 0,0 km/h (0 Bft) O 90 0 min 0 UV-I 30 W/m 3,2 km/h (1 Bft)
22.02.2010 08:20 2,4 C 86 % 991,9 hPa 0,0 mm 1,6 km/h (1 Bft) O 90 0 min 0 UV-I 30 W/m 8,0 km/h (2 Bft)
22.02.2010 08:30 2,5 C 85 % 991,8 hPa 0,0 mm 1,6 km/h (1 Bft) O-SO 112 0 min 0 UV-I 33 W/m 6,4 km/h (2 Bft)
22.02.2010 08:40 2,6 C 85 % 991,6 hPa 0,0 mm 1,6 km/h (1 Bft) SO 135 0 min 0 UV-I 62 W/m 9,7 km/h (2 Bft)
22.02.2010 08:50 2,7 C 85 % 991,6 hPa 0,0 mm 1,6 km/h (1 Bft) O-SO 112 0 min 0 UV-I 62 W/m 9,7 km/h (2 Bft)
22.02.2010 09:00 2,9 C 85 % 991,5 hPa 0,0 mm 3,2 km/h (1 Bft) SO 135 0 min 0 UV-I 90 W/m 14,5 km/h (3 Bft)
22.02.2010 09:10 3,1 C 85 % 991,6 hPa 0,0 mm 3,2 km/h (1 Bft) O-SO 112 0 min 0 UV-I 90 W/m 9,7 km/h (2 Bft)
22.02.2010 09:20 3,3 C 84 % 991,6 hPa 0,0 mm 3,2 km/h (1 Bft) O-SO 112 0 min 0 UV-I 116 W/m 14,5 km/h (3 Bft)
22.02.2010 09:30 3,4 C 84 % 991,5 hPa 0,0 mm 1,6 km/h (1 Bft) O-SO 112 0 min 1 UV-I 113 W/m 8,0 km/h (2 Bft)
22.02.2010 09:40 3,6 C 83 % 991,5 hPa 0,0 mm 1,6 km/h (1 Bft) SO 135 0 min 1 UV-I 121 W/m 6,4 km/h (2 Bft)
22.02.2010 09:50 3,7 C 83 % 991,3 hPa 0,0 mm 1,6 km/h (1 Bft) SO 135 0 min 1 UV-I 132 W/m 4,8 km/h (1 Bft)
22.02.2010 10:00 4,1 C 81 % 991,3 hPa 0,0 mm 3,2 km/h (1 Bft) O-SO 112 0 min 1 UV-I 171 W/m 8,0 km/h (2 Bft)
22.02.2010 10:10 4,7 C 79 % 991,3 hPa 0,0 mm 1,6 km/h (1 Bft) SO 135 0 min 1 UV-I 171 W/m 11,3 km/h (2 Bft)
22.02.2010 10:20 4,9 C 79 % 991,2 hPa 0,0 mm 1,6 km/h (1 Bft) SO 135 0 min 1 UV-I 160 W/m 9,7 km/h (2 Bft)
22.02.2010 10:30 5,1 C 79 % 991,2 hPa 0,0 mm 1,6 km/h (1 Bft) S-SO 157 0 min 1 UV-I 116 W/m 6,4 km/h (2 Bft)
22.02.2010 10:40 5,1 C 78 % 991,4 hPa 0,0 mm 1,6 km/h (1 Bft) SO 135 0 min 1 UV-I 88 W/m 11,3 km/h (2 Bft)
22.02.2010 10:50 5,1 C 78 % 991,4 hPa 0,0 mm 3,2 km/h (1 Bft) SO 135 0 min 1 UV-I 97 W/m 9,7 km/h (2 Bft)
22.02.2010 11:00 5,1 C 78 % 991,5 hPa 0,0 mm 1,6 km/h (1 Bft) S-SO 157 0 min 1 UV-I 118 W/m 9,7 km/h (2 Bft)
22.02.2010 11:10 5,2 C 79 % 991,5 hPa 0,0 mm 1,6 km/h (1 Bft) O-SO 112 0 min 1 UV-I 107 W/m 8,0 km/h (2 Bft)
22.02.2010 11:20 5,2 C 79 % 991,2 hPa 0,0 mm 3,2 km/h (1 Bft) O-SO 112 0 min 1 UV-I 160 W/m 8,0 km/h (2 Bft)
22.02.2010 11:30 5,3 C 79 % 991,1 hPa 0,0 mm 3,2 km/h (1 Bft) O-SO 112 0 min 1 UV-I 162 W/m 11,3 km/h (2 Bft)
22.02.2010 11:40 5,4 C 78 % 990,8 hPa 0,0 mm 4,8 km/h (1 Bft) O-SO 112 0 min 1 UV-I 214 W/m 11,3 km/h (2 Bft)
22.02.2010 11:50 5,6 C 78 % 990,7 hPa 0,0 mm 4,8 km/h (1 Bft) O-SO 112 0 min 1 UV-I 227 W/m 14,5 km/h (3 Bft)
22.02.2010 12:00 5,7 C 77 % 990,5 hPa 0,0 mm 4,8 km/h (1 Bft) SO 135 0 min 1 UV-I 207 W/m 19,3 km/h (3 Bft)
22.02.2010 12:10 5,7 C 77 % 990,6 hPa 0,0 mm 4,8 km/h (1 Bft) O-SO 112 0 min 1 UV-I 251 W/m 14,5 km/h (3 Bft)
22.02.2010 12:20 5,8 C 77 % 990,2 hPa 0,0 mm 4,8 km/h (1 Bft) SO 135 10 min 2 UV-I 415 W/m 17,7 km/h (3 Bft)
22.02.2010 12:30 6,3 C 76 % 990,1 hPa 0,0 mm 6,4 km/h (2 Bft) O-SO 112 10 min 2 UV-I 631 W/m 17,7 km/h (3 Bft)
22.02.2010 12:40 7,2 C 72 % 990,0 hPa 0,0 mm 4,8 km/h (1 Bft) SO 135 10 min 2 UV-I 585 W/m 17,7 km/h (3 Bft)
22.02.2010 12:50 6,8 C 74 % 990,0 hPa 0,0 mm 6,4 km/h (2 Bft) O-SO 112 0 min 1 UV-I 188 W/m 16,1 km/h (3 Bft)
22.02.2010 13:00 6,2 C 78 % 990,0 hPa 0,0 mm 3,2 km/h (1 Bft) SO 135 0 min 1 UV-I 69 W/m 8,0 km/h (2 Bft)
22.02.2010 13:10 5,7 C 82 % 989,7 hPa 0,3 mm 4,8 km/h (1 Bft) SO 135 0 min 1 UV-I 76 W/m 11,3 km/h (2 Bft)
22.02.2010 13:20 5,3 C 84 % 989,5 hPa 0,0 mm 6,4 km/h (2 Bft) O-SO 112 0 min 1 UV-I 95 W/m 17,7 km/h (3 Bft)
22.02.2010 13:30 5,2 C 85 % 989,4 hPa 0,0 mm 4,8 km/h (1 Bft) O-SO 112 0 min 1 UV-I 114 W/m 11,3 km/h (2 Bft)
22.02.2010 13:40 5,3 C 87 % 989,3 hPa 0,0 mm 3,2 km/h (1 Bft) SO 135 0 min 1 UV-I 163 W/m 9,7 km/h (2 Bft)
22.02.2010 13:50 5,4 C 86 % 989,1 hPa 0,0 mm 4,8 km/h (1 Bft) O-SO 112 0 min 1 UV-I 169 W/m 11,3 km/h (2 Bft)
22.02.2010 14:00 5,6 C 86 % 988,8 hPa 0,0 mm 3,2 km/h (1 Bft) SO 135 0 min 1 UV-I 156 W/m 11,3 km/h (2 Bft)
22.02.2010 14:10 5,7 C 86 % 988,6 hPa 0,0 mm 3,2 km/h (1 Bft) O-SO 112 0 min 1 UV-I 223 W/m 9,7 km/h (2 Bft)
22.02.2010 14:20 6,0 C 85 % 988,2 hPa 0,0 mm 3,2 km/h (1 Bft) O-SO 112 0 min 1 UV-I 149 W/m 8,0 km/h (2 Bft)
22.02.2010 14:30 6,2 C 84 % 988,0 hPa 0,0 mm 4,8 km/h (1 Bft) O-SO 112 10 min 1 UV-I 248 W/m 16,1 km/h (3 Bft)
22.02.2010 14:40 6,8 C 81 % 987,9 hPa 0,0 mm 4,8 km/h (1 Bft) SO 135 10 min 1 UV-I 404 W/m 9,7 km/h (2 Bft)
22.02.2010 14:50 7,1 C 79 % 987,9 hPa 0,0 mm 4,8 km/h (1 Bft) SO 135 0 min 1 UV-I 207 W/m 17,7 km/h (3 Bft)
22.02.2010 15:00 7,1 C 80 % 987,6 hPa 0,0 mm 4,8 km/h (1 Bft) SO 135 0 min 1 UV-I 190 W/m 14,5 km/h (3 Bft)
22.02.2010 15:10 7,1 C 79 % 987,5 hPa 0,0 mm 3,2 km/h (1 Bft) SO 135 0 min 1 UV-I 162 W/m 14,5 km/h (3 Bft)
22.02.2010 15:20 6,8 C 80 % 987,5 hPa 0,0 mm 3,2 km/h (1 Bft) O-SO 112 0 min 1 UV-I 107 W/m 14,5 km/h (3 Bft)
22.02.2010 15:30 6,8 C 80 % 987,4 hPa 0,0 mm 3,2 km/h (1 Bft) S-SO 157 0 min 1 UV-I 135 W/m 16,1 km/h (3 Bft)
22.02.2010 15:40 6,9 C 80 % 987,3 hPa 0,0 mm 3,2 km/h (1 Bft) O-SO 112 0 min 1 UV-I 156 W/m 8,0 km/h (2 Bft)
22.02.2010 15:50 7,1 C 80 % 987,2 hPa 0,0 mm 1,6 km/h (1 Bft) O-SO 112 0 min 1 UV-I 120 W/m 8,0 km/h (2 Bft)
22.02.2010 16:00 7,0 C 80 % 986,9 hPa 0,0 mm 3,5 km/h (1 Bft) O-SO 114 0 min 0 UV-I 89 W/m 8,0 km/h (2 Bft)
22.02.2010 16:10 7,0 C 80 % 986,8 hPa 0,0 mm 3,2 km/h (1 Bft) O-SO 112 0 min 0 UV-I 91 W/m 9,7 km/h (2 Bft)
22.02.2010 16:20 7,0 C 80 % 986,6 hPa 0,0 mm 3,2 km/h (1 Bft) O-SO 112 0 min 0 UV-I 105 W/m 11,3 km/h (2 Bft)
22.02.2010 16:30 7,1 C 80 % 986,9 hPa 0,0 mm 1,6 km/h (1 Bft) O-SO 112 10 min 0 UV-I 113 W/m 6,4 km/h (2 Bft)
22.02.2010 16:40 7,2 C 79 % 986,8 hPa 0,0 mm 1,6 km/h (1 Bft) O-SO 112 0 min 0 UV-I 69 W/m 8,0 km/h (2 Bft)
22.02.2010 16:50 7,3 C 79 % 986,8 hPa 0,0 mm 1,6 km/h (1 Bft) S 180 0 min 0 UV-I 49 W/m 11,3 km/h (2 Bft)
22.02.2010 17:00 7,4 C 78 % 986,7 hPa 0,0 mm 1,6 km/h (1 Bft) SO 135 0 min 0 UV-I 58 W/m 8,0 km/h (2 Bft)
22.02.2010 17:10 7,5 C 78 % 986,7 hPa 0,0 mm 1,6 km/h (1 Bft) O-SO 112 0 min 0 UV-I 47 W/m 8,0 km/h (2 Bft)
22.02.2010 17:20 7,4 C 77 % 986,5 hPa 0,0 mm 3,2 km/h (1 Bft) SO 135 0 min 0 UV-I 25 W/m 11,3 km/h (2 Bft)
22.02.2010 17:30 7,2 C 78 % 986,6 hPa 0,0 mm 4,8 km/h (1 Bft) SO 135 0 min 0 UV-I 18 W/m 17,7 km/h (3 Bft)
22.02.2010 17:40 6,9 C 79 % 986,6 hPa 0,0 mm 4,8 km/h (1 Bft) S-SO 157 0 min 0 UV-I 7 W/m 16,1 km/h (3 Bft)
22.02.2010 17:50 6,6 C 80 % 986,4 hPa 0,0 mm 4,8 km/h (1 Bft) SO 135 0 min 0 UV-I 0 W/m 19,3 km/h (3 Bft)
22.02.2010 18:00 6,4 C 81 % 986,3 hPa 0,0 mm 6,4 km/h (2 Bft) S-SO 157 0 min 0 UV-I 0 W/m 19,3 km/h (3 Bft)
22.02.2010 18:10 6,3 C 82 % 986,2 hPa 0,0 mm 4,8 km/h (1 Bft) SO 135 0 min 0 UV-I 0 W/m 17,7 km/h (3 Bft)
22.02.2010 18:20 6,2 C 83 % 986,2 hPa 0,0 mm 4,8 km/h (1 Bft) S-SO 157 0 min 0 UV-I 0 W/m 17,7 km/h (3 Bft)
22.02.2010 18:30 6,2 C 83 % 986,3 hPa 0,0 mm 4,8 km/h (1 Bft) S 180 0 min 0 UV-I 0 W/m 17,7 km/h (3 Bft)
22.02.2010 18:40 6,2 C 84 % 986,3 hPa 0,0 mm 4,8 km/h (1 Bft) SO 135 0 min 0 UV-I 0 W/m 20,9 km/h (4 Bft)
22.02.2010 18:50 6,2 C 84 % 986,4 hPa 0,0 mm 3,2 km/h (1 Bft) S 180 0 min 0 UV-I 0 W/m 16,1 km/h (3 Bft)
22.02.2010 19:00 6,2 C 84 % 986,5 hPa 0,0 mm 3,2 km/h (1 Bft) S-SO 157 0 min 0 UV-I 0 W/m 9,7 km/h (2 Bft)
22.02.2010 19:10 6,2 C 84 % 986,6 hPa 0,0 mm 3,2 km/h (1 Bft) S-SO 157 0 min 0 UV-I 0 W/m 14,5 km/h (3 Bft)
22.02.2010 19:20 6,2 C 84 % 986,6 hPa 0,0 mm 3,2 km/h (1 Bft) S-SO 157 0 min 0 UV-I 0 W/m 8,0 km/h (2 Bft)
22.02.2010 19:30 6,2 C 85 % 986,5 hPa 0,3 mm 3,2 km/h (1 Bft) O 90 0 min 0 UV-I 0 W/m 11,3 km/h (2 Bft)
22.02.2010 19:40 6,2 C 85 % 986,5 hPa 0,0 mm 3,2 km/h (1 Bft) O-SO 112 0 min 0 UV-I 0 W/m 14,5 km/h (3 Bft)
22.02.2010 19:50 6,2 C 85 % 986,3 hPa 0,0 mm 3,2 km/h (1 Bft) SO 135 0 min 0 UV-I 0 W/m 9,7 km/h (2 Bft)
22.02.2010 20:00 6,1 C 86 % 986,1 hPa 0,3 mm 3,2 km/h (1 Bft) O-SO 112 0 min 0 UV-I 0 W/m 8,0 km/h (2 Bft)
22.02.2010 20:10 6,1 C 86 % 985,9 hPa 0,0 mm 1,6 km/h (1 Bft) SO 135 0 min 0 UV-I 0 W/m 4,8 km/h (1 Bft)
22.02.2010 20:20 6,1 C 86 % 985,8 hPa 0,0 mm 1,6 km/h (1 Bft) S-SO 157 0 min 0 UV-I 0 W/m 6,4 km/h (2 Bft)
22.02.2010 20:30 6,0 C 87 % 985,6 hPa 0,3 mm 1,6 km/h (1 Bft) SO 135 0 min 0 UV-I 0 W/m 6,4 km/h (2 Bft)
22.02.2010 20:40 6,0 C 87 % 985,6 hPa 0,0 mm 1,6 km/h (1 Bft) O-SO 112 0 min 0 UV-I 0 W/m 6,4 km/h (2 Bft)
22.02.2010 20:50 6,0 C 88 % 985,6 hPa 0,5 mm 1,5 km/h (1 Bft) SO 126 0 min 0 UV-I 0 W/m 4,8 km/h (1 Bft)
22.02.2010 21:00 6,0 C 88 % 985,3 hPa 0,8 mm 1,2 km/h (1 Bft) SO 141 0 min 0 UV-I 0 W/m 6,4 km/h (2 Bft)
22.02.2010 21:10 6,0 C 88 % 985,3 hPa 0,5 mm 1,0 km/h (0 Bft) S 171 0 min 0 UV-I 0 W/m 6,4 km/h (2 Bft)
22.02.2010 21:20 6,0 C 89 % 985,3 hPa 0,3 mm 0,6 km/h (0 Bft) SO 135 0 min 0 UV-I 0 W/m 4,8 km/h (1 Bft)
22.02.2010 21:30 6,0 C 89 % 985,1 hPa 0,5 mm 0,8 km/h (0 Bft) SO 138 0 min 0 UV-I 0 W/m 4,8 km/h (1 Bft)
22.02.2010 21:40 6,0 C 89 % 985,0 hPa 0,3 mm 1,3 km/h (1 Bft) SO 146 0 min 0 UV-I 0 W/m 6,4 km/h (2 Bft)
22.02.2010 21:50 6,1 C 90 % 984,7 hPa 0,3 mm 0,7 km/h (0 Bft) SO 146 0 min 0 UV-I 0 W/m 4,8 km/h (1 Bft)
22.02.2010 22:00 6,1 C 90 % 984,7 hPa 0,0 mm 2,0 km/h (1 Bft) S-SW 209 0 min 0 UV-I 0 W/m 14,5 km/h (3 Bft)
22.02.2010 22:10 6,5 C 91 % 984,6 hPa 0,0 mm 4,2 km/h (1 Bft) S-SW 207 0 min 0 UV-I 0 W/m 19,3 km/h (3 Bft)
22.02.2010 22:20 7,0 C 91 % 984,4 hPa 0,0 mm 6,0 km/h (2 Bft) S 188 0 min 0 UV-I 0 W/m 22,5 km/h (4 Bft)
22.02.2010 22:30 7,3 C 91 % 984,5 hPa 0,0 mm 7,8 km/h (2 Bft) S-SW 213 0 min 0 UV-I 0 W/m 16,1 km/h (3 Bft)
22.02.2010 22:40 7,6 C 91 % 984,4 hPa 0,0 mm 7,8 km/h (2 Bft) S-SW 213 0 min 0 UV-I 0 W/m 22,5 km/h (4 Bft)
22.02.2010 22:50 7,6 C 91 % 984,4 hPa 0,0 mm 9,7 km/h (2 Bft) SW 225 0 min 0 UV-I 0 W/m 25,7 km/h (4 Bft)
22.02.2010 23:00 7,8 C 90 % 984,5 hPa 0,0 mm 8,0 km/h (2 Bft) S-SW 202 0 min 0 UV-I 0 W/m 19,3 km/h (3 Bft)
22.02.2010 23:10 8,0 C 89 % 984,5 hPa 0,0 mm 9,7 km/h (2 Bft) W-SW 247 0 min 0 UV-I 0 W/m 22,5 km/h (4 Bft)
22.02.2010 23:20 8,2 C 88 % 984,6 hPa 0,0 mm 9,7 km/h (2 Bft) SW 225 0 min 0 UV-I 0 W/m 22,5 km/h (4 Bft)
22.02.2010 23:30 8,4 C 87 % 984,6 hPa 0,0 mm 8,0 km/h (2 Bft) SW 225 0 min 0 UV-I 0 W/m 22,5 km/h (4 Bft)
22.02.2010 23:40 8,4 C 86 % 984,7 hPa 0,0 mm 6,4 km/h (2 Bft) SW 225 0 min 0 UV-I 0 W/m 20,9 km/h (4 Bft)
22.02.2010 23:50 8,4 C 86 % 984,7 hPa 0,0 mm 9,7 km/h (2 Bft) SW 225 0 min 0 UV-I 0 W/m 19,3 km/h (3 Bft)
_ Min-Zeit 00:40 12:40 22:20 - 00:00 - - - - - 00:00
Minimum _ 0,8 C 72 % 984,4 hPa - 0,0 km/h (0 Bft) - - - - - 3,2 km/h (1 Bft)
_ Max-Zeit 23:50 22:10 00:00 21:00 22:50 - - 12:20 12:30 12:30 22:50
Maximum _ 8,5 C 91 % 995,6 hPa 0,8 mm 9,7 km/h
SW (2 Bft)
- - 10 min 2 UV-I 631 W/m 25,7 km/h
W (4 Bft)
Durchschnitt _ 4,5 C 84 % 989,8 hPa #4,1 mm 2,7 km/h (1 Bft) SO - #1:00 h 1 UV-I 143 W/m 10,2 km/h (2 Bft)